Back to catalog

SL-12 DEB

LostHEO
NORAD 41700·DEBRIS·🇷🇺 Russia

Launched Mar 1, 2010 from Baikonur Cosmodrome

Loading…

Next Passes (next 24 hours)

TLE

StaleSource: Space-Track

Epoch: May 3, 2025, 13:28 UTC

1 41700U 10007S   25123.56113341  .00000170  00000-0  16834-2 0  9999
2 41700  64.5184  64.8316 5701930 336.9489   5.2740  4.13348308161513

Track SL-12 DEB in real time with AllMySat

Download on the App Store